Angoon, AK (99820)

2:15 AM AKDT on July 30, 2014 (GMT -0800)
Angoon (PAGN) Elev 0 ft | 57.50 °N, 134.59 °W | Change Station

Current weather conditions updated 19 minutes ago

Overcast
Overcast
55 °F
Feels Like 55 °F
N
0
Wind Variable Wind from North

Today is forecast to be Much Cooler than yesterday. Afternoon showers.

Today
High -- | Low -- °F
--% Chance of Precip.
Yesterday
High -- | Low -- °F
Precip. -- in
4:50 AM 9:17 PM
Waxing Crescent, 11% visible
Pressure 30.16 in
Visibility 10.0 miles
Clouds Scattered Clouds 3200 ft
Mostly Cloudy 4000 ft
Overcast 8500 ft
Dew Point 55 °F
Humidity 100%
Rainfall 0.00 in
Snow Depth Not available.
UV 0 out of 12
Pollen Not available.
Air Quality Not available.
Flu Activity Not available.
METAR PAGN 300956Z AUTO 00000KT 10SM SCT032 BKN040 OVC085 13/13 A3015 RMK AO2 TSNO T01270127 SLP212 $

More Conditions Fewer Conditions

Pressure 30.16 in
Visibility 10.0 miles
Clouds Scattered Clouds 3200 ft
Mostly Cloudy 4000 ft
Overcast 8500 ft
Dew Point 55 °F
Humidity 100%
Rainfall 0.00 in
Snow Depth Not available.
UV 0 out of 12
Pollen Not available.
Air Quality Not available.
Flu Activity Not available.
METAR PAGN 300956Z AUTO 00000KT 10SM SCT032 BKN040 OVC085 13/13 A3015 RMK AO2 TSNO T01270127 SLP212 $

More Conditions Fewer Conditions

10-Day Weather Forecast

Almanac

Astronomy

Jul. 30, 2014 Rise Set
Actual Time 4:50 AM AKDT 9:17 PM AKDT
Civil Twilight 3:57 AM AKDT 10:09 PM AKDT
Nautical Twilight 2:29 AM AKDT 11:35 PM AKDT
Astronomical Twilight Sun does not rise Sun does not rise
Moon 9:27 AM AKDT 9:59 PM AKDT
Length of Visible Light 18h 12m
Length of Day
16h 26m
Tomorrow will be 4m 8s shorter.
Waxing Crescent, 11% of the Moon is Illuminated
Today
Waxing Crescent
Aug 3
First Quarter
Aug 10
Full
Aug 17
Last Quarter
Aug 25
New

Today's Extremes

State Highs State Lows

Community

WunderPhotos

Upload Photos

1,739,032 photos uploaded!

WunderBlogs® & News

Nearby

Snow Depth

Station Depth Elevation
Long Lake 0 in 820 ft
Upper Tsaina River 0 in 1750 ft
Moraine 0 in 2100 ft
Grandview 1 in 1100 ft
Grouse Creek Divide 0 in 700 ft

Earthquake Activity

City Distance Mag. Time & Date
No recent earthquake activity has been reported nearby.
Minimum magnitude displayed is 2.5.

Coastal Water Temperatures

Place Temperature
No Stations Reporting

Nearby Weather Stations

There are no personal weather stations in this area.